[[{"header":{"parameterUnit":"m.s-1","parameterCategory":2,"la1":30.2991,"la2":30.254,"lo1":-89.0895,"lo2":-89.0444,"dy":0.0017,"dx":0.0017,"nx":28,"ny":28,"refTime":"2024-10-07T09:00:00:Z","depth":"0","parameterNumber":2,"parameterNumberName":"U-component_of_CURRENTS"},"data":[0,0,0,0,0,0,0,0,0,0,0,0,0,0,0,0,0,0,0,0,0,0,0,0,0,0,0,0,0,0,0,0,0,0,0,0,0,0,0,0,0,0,0,0,0,0,0,0,0,0,0,0,0,0,0,0,0,0,0.2447,0.2447,0,0.2478,0.2478,0.2478,0.2475,0.2475,0.2475,0.2475,0.2467,0.2467,0.2467,0,0,0,0,0,0,0,0,0,0,0,0,0,0.2378,0.2379,0.2447,0.2447,0.2448,0.2478,0.2478,0.2478,0.2475,0.2475,0.2475,0.2475,0.2467,0.2467,0.2467,0,0,0,0,0,0,0,0,0,0,0,0,0,0.2406,0.238,0.2447,0.2452,0.2453,0.2478,0.2478,0.2478,0.2476,0.2475,0.2475,0.2474,0.2467,0.2467,0.2467,0.2475,0,0,0.2467,0.2467,0,0,0,0,0,0,0,0,0.2405,0.2408,0.2451,0.2452,0.2453,0.2475,0.2451,0.2476,0.2476,0.2464,0.2475,0.2474,0.2468,0.2468,0.2471,0.2474,0.2474,0.2467,0.2467,0.2467,0.2467,0,0,0,0,0,0,0,0.2403,0.2407,0.2457,0.2451,0.2453,0.2451,0.2454,0.2456,0.2465,0.2465,0.2466,0.2473,0.2468,0.2471,0.2471,0.2474,0.2467,0.2467,0.2467,0.2467,0.2514,0.2515,0,0,0,0,0,0,0.2405,0.2405,0.2456,0.2458,0.243,0.2453,0.2456,0.2466,0.2466,0.2467,0.2474,0.2473,0.2472,0.2471,0.2471,0.2507,0.2467,0.2467,0.2467,0.2513,0.2514,0.2515,0,0,0,0,0,0,0.2403,0.2409,0.2454,0.2434,0.244,0.2454,0.2465,0.2467,0.2474,0.2473,0.2472,0.2479,0.2471,0.2471,0.2483,0.2505,0.2467,0.2467,0.2511,0.2513,0.2515,0.2561,0,0,0,0,0,0,0.2401,0.2408,0.2414,0.2434,0.2441,0.2476,0.2466,0.2468,0.248,0.2479,0.2478,0.2477,0.2471,0.2483,0.2483,0.2504,0.2467,0.251,0.2512,0.2514,0.2558,0.2564,0.2569,0,0,0,0,0,0.2399,0.2407,0.2414,0.242,0.2449,0.2477,0.248,0.2487,0.2481,0.249,0.2491,0.2477,0.2498,0.2484,0.2484,0.2506,0.2509,0.2511,0.2514,0.2555,0.2563,0.2569,0,0,0,0,0,0,0.2375,0.2409,0.2416,0.2433,0.2457,0.2477,0.2485,0.2491,0.2499,0.2496,0.2489,0.2489,0.2511,0.2502,0.2487,0.2527,0.2502,0.2505,0.2534,0.2541,0.2546,0.2554,0.2467,0,0,0,0,0,0.2375,0.2391,0.2424,0.2436,0.2451,0.2469,0.2479,0.2489,0.2501,0.2504,0.2504,0.2508,0.2523,0.2525,0.2534,0.255,0.2563,0.2566,0.2571,0.2576,0.2584,0.2627,0.2637,0.2525,0.2524,0.2524,0,0,0.2366,0.2389,0.2396,0.2433,0.245,0.2477,0.2474,0.2496,0.2517,0.2501,0.2522,0.2528,0.2533,0.2558,0.2566,0.2551,0.2618,0.258,0.2584,0.2589,0.2631,0.2642,0.2651,0.2526,0.2526,0.2526,0,0,0.2364,0.2383,0.24,0.2427,0.2463,0.248,0.2489,0.2517,0.2529,0.2552,0.2553,0.2574,0.2582,0.26,0.2607,0.265,0.2649,0.265,0.2682,0.2724,0.2734,0.2742,0.2782,0.2794,0.265,0.265,0.265,0,0.2352,0.2384,0.2408,0.2438,0.2462,0.2483,0.2512,0.2531,0.2557,0.2578,0.2562,0.2609,0.2606,0.2655,0.2668,0.2663,0.2685,0.2654,0.2732,0.2741,0.2749,0.2788,0.28,0.2652,0.2652,0.2652,0.2651,0,0.2371,0.2399,0.2413,0.2459,0.2487,0.2516,0.2554,0.2579,0.2592,0.2613,0.2661,0.2668,0.2698,0.2702,0.2694,0.2756,0.2754,0.2737,0.2714,0.2763,0.2801,0.2813,0.2656,0.2655,0.2654,0.2654,0,0,0.2338,0.2413,0.2416,0.2446,0.2505,0.2528,0.2576,0.2629,0.2663,0.2687,0.2738,0.2763,0.2772,0.2783,0.2786,0.2815,0.2887,0.2799,0.28,0.2839,0.2986,0.3,0.3015,0.2885,0.2887,0.2888,0.2993,0,0.2346,0.24,0.244,0.249,0.2524,0.2572,0.2615,0.2664,0.27,0.2752,0.2783,0.2823,0.2802,0.2821,0.2853,0.2883,0.292,0.2861,0.2933,0.2936,0.2942,0.303,0.299,0.3082,0.3005,0.3007,0.3009,0,0.2354,0.2392,0.2442,0.252,0.254,0.257,0.265,0.269,0.2771,0.2806,0.2861,0.2886,0.2951,0.2914,0.3003,0.2967,0.2983,0.2996,0.3001,0.3006,0.2973,0.3019,0.3107,0.3069,0.3027,0.3026,0.3024,0,0.2319,0.2395,0.2433,0.2459,0.2545,0.2577,0.262,0.2699,0.2757,0.2839,0.2898,0.2964,0.3018,0.305,0.309,0.3051,0.3184,0.3132,0.3163,0.3163,0.3141,0.3136,0.32,0.3194,0.3194,0.3194,0.3193,0,0.2315,0.2345,0.2417,0.2437,0.2487,0.2552,0.2612,0.2672,0.2777,0.2847,0.2917,0.2994,0.3055,0.3137,0.3138,0.3214,0.3231,0.3198,0.3204,0.3156,0.3152,0.3125,0.3096,0.3198,0.3197,0.3196,0.3195,0,0.2268,0.2318,0.2365,0.2446,0.247,0.2499,0.2609,0.266,0.2765,0.2866,0.2903,0.3054,0.316,0.3228,0.3302,0.3296,0.3277,0.3354,0.33,0.3297,0.3264,0.3239,0.3162,0.3049,0.3404,0.3405,0.3406,0,0.225,0.2268,0.2347,0.237,0.2404,0.2461,0.2506,0.2628,0.2697,0.2889,0.2943,0.3106,0.3211,0.3368,0.3403,0.3462,0.3332,0.3428,0.334,0.3291,0.3267,0.3096,0.2991,0.3331,0.3331,0.3331,0.3331,0,0.2211,0.2236,0.2272,0.2317,0.2361,0.2413,0.2491,0.2556,0.2699,0.281,0.2961,0.307,0.3279,0.3357,0.3469,0.3477,0.3303,0.3434,0.34,0.3246,0.3047,0.293,0.3229,0.3333,0.3333,0.3333,0.3333,0.3333,0.217,0.218,0.2223,0.226,0.2307,0.2345,0.2361,0.247,0.2573,0.2719,0.2882,0.3028,0.3264,0.3439,0.3426,0.3441,0.3329,0.3365,0.335,0.3188,0.3041,0.3352,0.3447,0.3447,0.3448,0.3448,0.3448,0,0.2105,0.2128,0.2165,0.2201,0.2213,0.2262,0.2336,0.2347,0.2418,0.2612,0.2743,0.3017,0.318,0.3331,0.3484,0.3396,0.3175,0.3306,0.3065,0.2969,0.3295,0.3257,0.3295,0.3295,0.3295,0.3295,0.3295,0.3295,0.2072,0.2073,0.2094,0.2089,0.2112,0.2092,0.2106,0.2148,0.2263,0.2431,0.26,0.2785,0.3189,0.3484,0.3505,0.3403,0.3105,0.3005,0.2906,0.3192,0.3195,0.3197,0.3155,0.3171,0.3171,0.2459,0.2454,0.2451]},{"header":{"parameterUnit":"m.s-1","parameterCategory":2,"la1":30.2991,"la2":30.254,"lo1":-89.0895,"lo2":-89.0444,"dy":0.0017,"dx":0.0017,"nx":28,"ny":28,"refTime":"2024-10-07T09:00:00:Z","depth":"0","parameterNumber":3,"parameterNumberName":"V-component_of_CURRENTS"},"data":[0,0,0,0,0,0,0,0,0,0,0,0,0,0,0,0,0,0,0,0,0,0,0,0,0,0,0,0,0,0,0,0,0,0,0,0,0,0,0,0,0,0,0,0,0,0,0,0,0,0,0,0,0,0,0,0,0,0,-0.0249,-0.0249,0,-0.0306,-0.0307,-0.0308,-0.0348,-0.0348,-0.0349,-0.0349,-0.0431,-0.0433,-0.0435,0,0,0,0,0,0,0,0,0,0,0,0,0,-0.0217,-0.0218,-0.0249,-0.0249,-0.025,-0.0306,-0.0307,-0.0308,-0.0348,-0.0348,-0.0349,-0.0349,-0.043,-0.0432,-0.0435,0,0,0,0,0,0,0,0,0,0,0,0,0,-0.0249,-0.0218,-0.0249,-0.0276,-0.0279,-0.0306,-0.0307,-0.0308,-0.0348,-0.0348,-0.0349,-0.0349,-0.0429,-0.0432,-0.0435,-0.0447,0,0,-0.0444,-0.0445,0,0,0,0,0,0,0,0,-0.0247,-0.0251,-0.0271,-0.0274,-0.0278,-0.0319,-0.0326,-0.0355,-0.0348,-0.0323,-0.0349,-0.0349,-0.0395,-0.0401,-0.0412,-0.0451,-0.0454,-0.0444,-0.0446,-0.0448,-0.0448,0,0,0,0,0,0,0,-0.0245,-0.0249,-0.0273,-0.0272,-0.0276,-0.03,-0.0305,-0.0332,-0.0358,-0.0325,-0.0328,-0.0333,-0.0397,-0.0409,-0.0414,-0.0455,-0.0444,-0.0447,-0.0449,-0.045,-0.0509,-0.0509,0,0,0,0,0,0,-0.0233,-0.0246,-0.0271,-0.0274,-0.0262,-0.03,-0.0306,-0.0306,-0.0357,-0.0364,-0.0332,-0.0334,-0.0404,-0.0411,-0.0417,-0.0426,-0.0447,-0.045,-0.0452,-0.0509,-0.0509,-0.0509,0,0,0,0,0,0,-0.0232,-0.0235,-0.0268,-0.0261,-0.0267,-0.03,-0.0301,-0.0307,-0.0319,-0.0362,-0.037,-0.0337,-0.0404,-0.0413,-0.0436,-0.043,-0.0452,-0.0454,-0.051,-0.0509,-0.0509,-0.0448,0,0,0,0,0,0,-0.0231,-0.0234,-0.023,-0.026,-0.0267,-0.0276,-0.0301,-0.0308,-0.0321,-0.0324,-0.0369,-0.0377,-0.0405,-0.0432,-0.0439,-0.0434,-0.0457,-0.051,-0.051,-0.0509,-0.045,-0.0446,-0.0442,0,0,0,0,0,-0.023,-0.0218,-0.0229,-0.0233,-0.026,-0.0276,-0.0282,-0.0308,-0.032,-0.032,-0.0351,-0.0375,-0.0435,-0.0434,-0.0443,-0.0438,-0.051,-0.051,-0.0509,-0.0452,-0.0447,-0.0442,0,0,0,0,0,0,-0.0199,-0.0222,-0.0235,-0.023,-0.0249,-0.0282,-0.0283,-0.0303,-0.0327,-0.0329,-0.0373,-0.0383,-0.0402,-0.0428,-0.0426,-0.0455,-0.0476,-0.0478,-0.043,-0.0425,-0.0421,-0.0403,-0.0459,0,0,0,0,0,-0.0191,-0.0189,-0.0216,-0.0212,-0.0219,-0.0251,-0.0261,-0.0277,-0.0303,-0.0314,-0.0346,-0.0379,-0.0407,-0.0421,-0.045,-0.0464,-0.0492,-0.0468,-0.0464,-0.046,-0.0452,-0.0492,-0.0491,-0.0507,-0.0507,-0.0507,0,0,-0.0178,-0.019,-0.0189,-0.0206,-0.0223,-0.0223,-0.0258,-0.0264,-0.0266,-0.0319,-0.0329,-0.0365,-0.0408,-0.0424,-0.0435,-0.0445,-0.0468,-0.0459,-0.0455,-0.0449,-0.0492,-0.049,-0.0488,-0.0507,-0.0507,-0.0507,0,0,-0.0146,-0.0161,-0.0149,-0.0161,-0.0179,-0.0198,-0.0197,-0.0226,-0.0241,-0.0257,-0.0295,-0.0324,-0.0366,-0.0394,-0.0415,-0.0404,-0.0445,-0.0416,-0.0379,-0.0418,-0.0417,-0.0416,-0.0442,-0.0444,-0.0413,-0.0412,-0.0412,0,-0.013,-0.0119,-0.0147,-0.0138,-0.014,-0.0182,-0.0166,-0.0188,-0.0221,-0.0229,-0.025,-0.0314,-0.0351,-0.0374,-0.0372,-0.0394,-0.042,-0.0393,-0.0412,-0.0412,-0.0412,-0.0439,-0.0442,-0.0409,-0.041,-0.041,-0.041,0,-0.0091,-0.0084,-0.0076,-0.0078,-0.0084,-0.0078,-0.0107,-0.0117,-0.0142,-0.0168,-0.0196,-0.0251,-0.0287,-0.0308,-0.0338,-0.0357,-0.0375,-0.0402,-0.0421,-0.0406,-0.0436,-0.044,-0.0405,-0.0406,-0.0407,-0.0408,0,0,-0.0048,-0.0048,-0.0045,-0.0031,-0.005,-0.0045,-0.0049,-0.0062,-0.0058,-0.0106,-0.0109,-0.0171,-0.0205,-0.0231,-0.0277,-0.0314,-0.0341,-0.0353,-0.0357,-0.0372,-0.0419,-0.0427,-0.0433,-0.0373,-0.0374,-0.0374,-0.0435,0,-0.0008,0.0027,0.0013,0.0048,0.0066,0.0032,0.0035,0.0017,-0.0011,-0.0026,-0.0093,-0.0115,-0.0175,-0.019,-0.0237,-0.0313,-0.035,-0.0321,-0.0437,-0.044,-0.0444,-0.0438,-0.0427,-0.048,-0.0439,-0.044,-0.0441,0,0.0038,0.0056,0.0098,0.0118,0.0123,0.0132,0.0137,0.0133,0.0092,0.0069,0.0026,-0.0024,-0.0082,-0.0136,-0.0258,-0.0237,-0.0319,-0.0383,-0.0388,-0.0419,-0.0456,-0.0492,-0.049,-0.066,-0.0448,-0.0447,-0.0447,0,0.0091,0.012,0.0158,0.0164,0.0173,0.0185,0.0184,0.0161,0.0176,0.0129,0.0138,0.0046,0.0017,-0.0103,-0.0233,-0.0247,-0.0367,-0.0406,-0.0491,-0.0492,-0.0516,-0.0519,-0.0687,-0.0492,-0.0492,-0.0492,-0.0492,0,0.0143,0.0175,0.0186,0.0207,0.0258,0.0239,0.028,0.0262,0.0256,0.0287,0.0192,0.0204,0.0023,-0.0062,-0.0202,-0.035,-0.0346,-0.0479,-0.0509,-0.0494,-0.0494,-0.067,-0.0785,-0.0494,-0.0493,-0.0493,-0.0493,0,0.0197,0.02,0.0249,0.0271,0.0285,0.0318,0.0355,0.0385,0.0362,0.0401,0.0397,0.0325,0.0211,0.0033,-0.0155,-0.0292,-0.0551,-0.05,-0.0462,-0.0486,-0.0727,-0.0838,-0.1055,-0.1136,-0.0606,-0.0606,-0.0607,0,0.0226,0.0257,0.0304,0.0342,0.0355,0.0399,0.0437,0.0435,0.0482,0.0488,0.0526,0.0436,0.0403,0.0124,-0.0144,-0.039,-0.0569,-0.0548,-0.058,-0.0736,-0.0883,-0.0967,-0.1026,-0.0589,-0.0589,-0.0589,-0.059,0,0.0287,0.03,0.0342,0.0419,0.047,0.0533,0.059,0.0651,0.066,0.0703,0.075,0.0726,0.0461,0.0232,-0.0119,-0.0312,-0.0686,-0.0561,-0.0742,-0.0899,-0.0984,-0.1076,-0.0548,-0.0592,-0.0592,-0.0591,-0.0591,-0.0591,0.0334,0.0375,0.043,0.0509,0.0572,0.0662,0.0731,0.081,0.0904,0.099,0.0943,0.095,0.0584,0.0116,-0.0178,-0.0696,-0.0719,-0.084,-0.0964,-0.1035,-0.1117,-0.0582,-0.065,-0.065,-0.065,-0.065,-0.065,0,0.0397,0.0443,0.0518,0.061,0.0695,0.0713,0.0837,0.0918,0.1052,0.1138,0.1185,0.1029,0.0569,0.0079,-0.0607,-0.0996,-0.1164,-0.1231,-0.136,-0.1402,-0.0938,-0.0937,-0.1046,-0.1046,-0.1045,-0.1045,-0.1045,-0.1045,0.0432,0.0515,0.0553,0.0701,0.077,0.0891,0.0969,0.1096,0.1194,0.1315,0.1347,0.1333,0.0982,-0.0287,-0.1163,-0.1402,-0.1698,-0.1784,-0.1926,-0.1621,-0.1594,-0.1568,-0.1594,-0.1838,-0.1839,-0.2318,-0.2324,-0.2328]}],[{"header":{"parameterUnit":"m.s-1","parameterCategory":2,"la1":30.2991,"la2":30.254,"lo1":-89.0895,"lo2":-89.0444,"dy":0.0017,"dx":0.0017,"nx":28,"ny":28,"refTime":"2024-10-07T09:00:00:Z","depth":"2","parameterNumber":2,"parameterNumberName":"U-component_of_CURRENTS"},"data":[0,0,0,0,0,0,0,0,0,0,0,0,0,0,0,0,0,0,0,0,0,0,0,0,0,0,0,0,0,0,0,0,0,0,0,0,0,0,0,0,0,0,0,0,0,0,0,0,0,0,0,0,0,0,0,0,0,0,0.2369,0.237,0,0.2401,0.2401,0.2402,0.2403,0.2403,0.2403,0.2403,0.2403,0.2403,0.2403,0,0,0,0,0,0,0,0,0,0,0,0,0,0.2302,0.2303,0.2369,0.237,0.237,0.2401,0.2401,0.2402,0.2403,0.2403,0.2403,0.2403,0.2403,0.2403,0.2403,0,0,0,0,0,0,0,0,0,0,0,0,0,0.233,0.2303,0.2369,0.2377,0.2378,0.2401,0.2401,0.2402,0.2403,0.2403,0.2403,0.2403,0.2403,0.2403,0.2403,0.2409,0,0,0.2404,0.2404,0,0,0,0,0,0,0,0,0.2328,0.2332,0.2375,0.2376,0.2378,0.24,0.2378,0.2403,0.2403,0.2391,0.2403,0.2403,0.2401,0.2401,0.2405,0.2409,0.2409,0.2404,0.2404,0.2404,0.2404,0,0,0,0,0,0,0,0.2326,0.233,0.2379,0.2376,0.2377,0.2376,0.238,0.2383,0.2394,0.2392,0.2393,0.2401,0.2401,0.2404,0.2405,0.2409,0.2404,0.2404,0.2404,0.2404,0.2455,0.2456,0,0,0,0,0,0,0.2328,0.2329,0.2378,0.238,0.2355,0.2378,0.2382,0.2391,0.2395,0.2396,0.2401,0.2401,0.2404,0.2404,0.2405,0.2444,0.2404,0.2404,0.2404,0.2454,0.2456,0.2457,0,0,0,0,0,0,0.2327,0.2332,0.2377,0.2357,0.2363,0.238,0.239,0.2392,0.2402,0.2402,0.2402,0.241,0.2404,0.2404,0.242,0.2443,0.2404,0.2405,0.2453,0.2454,0.2456,0.2503,0,0,0,0,0,0,0.2324,0.2332,0.2338,0.2357,0.2364,0.24,0.2391,0.2393,0.2408,0.2408,0.241,0.2409,0.2404,0.242,0.242,0.2443,0.2405,0.2451,0.2453,0.2456,0.25,0.2506,0.2511,0,0,0,0,0,0.2322,0.2332,0.2339,0.2345,0.2374,0.2401,0.2404,0.2413,0.2408,0.2419,0.2422,0.2409,0.2435,0.2421,0.2421,0.2444,0.245,0.2453,0.2455,0.2497,0.2505,0.2511,0,0,0,0,0,0,0.2302,0.2334,0.2341,0.236,0.2384,0.2402,0.2412,0.2418,0.2429,0.2428,0.2422,0.2423,0.2448,0.244,0.2424,0.2467,0.2442,0.2445,0.2473,0.248,0.2486,0.2494,0.2405,0,0,0,0,0,0.2303,0.232,0.235,0.2364,0.2379,0.2397,0.2408,0.2418,0.2431,0.2435,0.2437,0.2443,0.2459,0.2464,0.2473,0.2491,0.2503,0.2508,0.2514,0.2519,0.2526,0.2567,0.2577,0.2466,0.2466,0.2466,0,0,0.2296,0.2318,0.2326,0.2362,0.2379,0.2405,0.2403,0.2427,0.2448,0.2433,0.2457,0.2464,0.247,0.2496,0.2506,0.2491,0.2559,0.2522,0.2526,0.2531,0.2571,0.2582,0.2591,0.2468,0.2468,0.2467,0,0,0.2297,0.2317,0.2335,0.236,0.2396,0.2412,0.2422,0.2449,0.2462,0.2487,0.2489,0.2512,0.2522,0.254,0.2548,0.2591,0.2591,0.2593,0.2626,0.2666,0.2675,0.2684,0.2721,0.2732,0.2593,0.2593,0.2593,0,0.2288,0.232,0.2343,0.2371,0.2395,0.2417,0.2445,0.2464,0.2491,0.2512,0.2499,0.2547,0.2547,0.2595,0.2609,0.2605,0.2626,0.2597,0.2674,0.2682,0.269,0.2726,0.2738,0.2596,0.2596,0.2595,0.2595,0,0.2309,0.2336,0.235,0.2395,0.2422,0.245,0.2487,0.2514,0.2529,0.2549,0.2599,0.2607,0.2638,0.2644,0.2637,0.2698,0.2696,0.2678,0.2655,0.2704,0.2739,0.2751,0.26,0.2599,0.2598,0.2597,0,0,0.228,0.2351,0.2355,0.2384,0.244,0.2463,0.251,0.2562,0.2596,0.2623,0.2673,0.2701,0.2712,0.2723,0.2727,0.2755,0.2826,0.2741,0.2742,0.2778,0.2921,0.2923,0.2935,0.2824,0.2826,0.2828,0.2926,0,0.229,0.2341,0.2379,0.2428,0.246,0.2506,0.2548,0.2596,0.2634,0.2686,0.2718,0.276,0.2742,0.2763,0.2794,0.2823,0.2858,0.2802,0.2869,0.2871,0.2866,0.2949,0.2723,0.2792,0.2937,0.2939,0.2941,0,0.2298,0.2334,0.2382,0.2456,0.2475,0.2505,0.2583,0.2623,0.2703,0.2739,0.2796,0.2822,0.2887,0.2852,0.2938,0.2905,0.292,0.2932,0.2936,0.2929,0.2895,0.2765,0.2808,0.296,0.2958,0.2957,0.2956,0,0.2265,0.2338,0.2375,0.24,0.2481,0.2514,0.2556,0.2634,0.2691,0.2774,0.2833,0.2898,0.2952,0.2983,0.3021,0.2986,0.311,0.3061,0.3079,0.3079,0.2896,0.2877,0.3121,0.3121,0.312,0.312,0.312,0,0.2261,0.229,0.2361,0.238,0.2429,0.2491,0.2552,0.2611,0.2715,0.2782,0.2854,0.2928,0.2989,0.3066,0.3067,0.3132,0.3155,0.3112,0.3116,0.2908,0.2889,0.3032,0.302,0.3124,0.3123,0.3122,0.3122,0,0.2217,0.2265,0.231,0.2389,0.2414,0.2443,0.2551,0.2601,0.2705,0.2803,0.2841,0.2986,0.3085,0.3149,0.3219,0.3208,0.3248,0.3256,0.3016,0.2991,0.3173,0.3163,0.3288,0.3289,0.329,0.3291,0.3291,0,0.22,0.2218,0.2295,0.2319,0.2353,0.241,0.2455,0.2574,0.2639,0.2824,0.2875,0.303,0.3121,0.3263,0.327,0.3314,0.3312,0.3113,0.3003,0.3206,0.3196,0.3184,0.3173,0.2774,0.277,0.2767,0.2765,0,0.2163,0.2189,0.2223,0.227,0.2313,0.2363,0.244,0.25,0.2638,0.2742,0.2882,0.2978,0.3146,0.3112,0.32,0.3174,0.3089,0.3058,0.3338,0.278,0.2732,0.272,0.2723,0.2738,0.2741,0.2743,0.2744,0.2745,0.2125,0.2135,0.2177,0.2215,0.2261,0.2295,0.231,0.2407,0.2501,0.2614,0.2772,0.2832,0.2919,0.2951,0.2894,0.285,0.3047,0.2886,0.2889,0.2897,0.2834,0.2792,0.2797,0.28,0.2802,0.2804,0.2806,0,0.2061,0.2086,0.2122,0.2156,0.2165,0.2218,0.2284,0.2274,0.2328,0.2456,0.2554,0.2432,0.2471,0.2533,0.2458,0.2503,0.2413,0.2378,0.222,0.2253,0.2281,0.2178,0.1971,0.1968,0.1964,0.1961,0,0,0.2029,0.2028,0.2047,0.2039,0.2066,0.2038,0.2048,0.205,0.2107,0.2112,0.2132,0.234,0.2481,0.2172,0.2177,0.2052,0.2111,0.1975,0.266,0.2508,0.253,0.2614,0.2501,0,0,0,0,0]},{"header":{"parameterUnit":"m.s-1","parameterCategory":2,"la1":30.2991,"la2":30.254,"lo1":-89.0895,"lo2":-89.0444,"dy":0.0017,"dx":0.0017,"nx":28,"ny":28,"refTime":"2024-10-07T09:00:00:Z","depth":"2","parameterNumber":3,"parameterNumberName":"V-component_of_CURRENTS"},"data":[0,0,0,0,0,0,0,0,0,0,0,0,0,0,0,0,0,0,0,0,0,0,0,0,0,0,0,0,0,0,0,0,0,0,0,0,0,0,0,0,0,0,0,0,0,0,0,0,0,0,0,0,0,0,0,0,0,0,-0.0116,-0.0117,0,-0.0174,-0.0175,-0.0175,-0.0218,-0.0218,-0.0218,-0.0219,-0.0301,-0.0303,-0.0305,0,0,0,0,0,0,0,0,0,0,0,0,0,-0.0082,-0.0082,-0.0116,-0.0117,-0.0117,-0.0174,-0.0175,-0.0175,-0.0218,-0.0218,-0.0218,-0.0219,-0.03,-0.0303,-0.0305,0,0,0,0,0,0,0,0,0,0,0,0,0,-0.0115,-0.0083,-0.0116,-0.0145,-0.0148,-0.0173,-0.0175,-0.0176,-0.0218,-0.0218,-0.0219,-0.0219,-0.03,-0.0302,-0.0305,-0.0314,0,0,-0.0314,-0.0315,0,0,0,0,0,0,0,0,-0.0113,-0.0116,-0.014,-0.0143,-0.0146,-0.0188,-0.0193,-0.0223,-0.0218,-0.0192,-0.0219,-0.0219,-0.0265,-0.0271,-0.0281,-0.0318,-0.0321,-0.0314,-0.0316,-0.0317,-0.0318,0,0,0,0,0,0,0,-0.011,-0.0114,-0.014,-0.014,-0.0144,-0.0168,-0.0173,-0.0199,-0.0226,-0.0194,-0.0197,-0.0202,-0.0267,-0.0278,-0.0283,-0.0323,-0.0314,-0.0317,-0.0319,-0.032,-0.0378,-0.0378,0,0,0,0,0,0,-0.0099,-0.0112,-0.0138,-0.0141,-0.0129,-0.0168,-0.0174,-0.0175,-0.0226,-0.0233,-0.0202,-0.0204,-0.0273,-0.028,-0.0287,-0.0297,-0.0317,-0.032,-0.0322,-0.0378,-0.0378,-0.0378,0,0,0,0,0,0,-0.0098,-0.0101,-0.0135,-0.0128,-0.0134,-0.0168,-0.0169,-0.0176,-0.0189,-0.0231,-0.0239,-0.0209,-0.0274,-0.0283,-0.0306,-0.03,-0.0321,-0.0324,-0.0378,-0.0378,-0.0378,-0.0319,0,0,0,0,0,0,-0.0097,-0.01,-0.0097,-0.0126,-0.0133,-0.0144,-0.0169,-0.0177,-0.0191,-0.0195,-0.0239,-0.0247,-0.0275,-0.0302,-0.0309,-0.0305,-0.0326,-0.0378,-0.0378,-0.0378,-0.0321,-0.0317,-0.0313,0,0,0,0,0,-0.0095,-0.0085,-0.0097,-0.01,-0.0128,-0.0144,-0.015,-0.0177,-0.0191,-0.0192,-0.0222,-0.0246,-0.0305,-0.0304,-0.0313,-0.0309,-0.0379,-0.0378,-0.0378,-0.0323,-0.0318,-0.0313,0,0,0,0,0,0,-0.0067,-0.0089,-0.0103,-0.0099,-0.0119,-0.0151,-0.0153,-0.0173,-0.0198,-0.0201,-0.0244,-0.0254,-0.0273,-0.0299,-0.0296,-0.0325,-0.0346,-0.0347,-0.0301,-0.0297,-0.0293,-0.0274,-0.0328,0,0,0,0,0,-0.0059,-0.0059,-0.0085,-0.0083,-0.009,-0.0122,-0.0132,-0.0149,-0.0175,-0.0186,-0.0218,-0.0251,-0.0278,-0.0293,-0.032,-0.0335,-0.0362,-0.0339,-0.0335,-0.0331,-0.0322,-0.0361,-0.036,-0.0376,-0.0376,-0.0376,0,0,-0.0048,-0.006,-0.006,-0.0077,-0.0094,-0.0094,-0.0129,-0.0137,-0.0138,-0.0191,-0.0202,-0.0238,-0.0279,-0.0295,-0.0306,-0.0316,-0.034,-0.033,-0.0327,-0.032,-0.036,-0.0359,-0.0357,-0.0376,-0.0376,-0.0376,0,0,-0.0019,-0.0035,-0.0023,-0.0035,-0.0053,-0.0071,-0.0072,-0.0101,-0.0116,-0.0133,-0.0171,-0.02,-0.0242,-0.0267,-0.0287,-0.0277,-0.0317,-0.0289,-0.0253,-0.0291,-0.0289,-0.0289,-0.0315,-0.0317,-0.0286,-0.0286,-0.0286,0,-0.0005,0.0006,-0.0022,-0.0013,-0.0015,-0.0057,-0.0042,-0.0063,-0.0097,-0.0105,-0.0128,-0.019,-0.0227,-0.0246,-0.0245,-0.0267,-0.0293,-0.0267,-0.0284,-0.0284,-0.0285,-0.0312,-0.0315,-0.0283,-0.0283,-0.0284,-0.0284,0,0.0032,0.0039,0.0046,0.0044,0.0039,0.0044,0.0017,0.0006,-0.0021,-0.0045,-0.0074,-0.0128,-0.0163,-0.0183,-0.0213,-0.0231,-0.025,-0.0275,-0.0294,-0.0279,-0.031,-0.0314,-0.0279,-0.028,-0.0281,-0.0282,0,0,0.007,0.0073,0.0075,0.009,0.0072,0.0077,0.0074,0.0063,0.0067,0.0017,0.0014,-0.0046,-0.0082,-0.0106,-0.0152,-0.0187,-0.0215,-0.0227,-0.0231,-0.0247,-0.0292,-0.0305,-0.0311,-0.0247,-0.0247,-0.0247,-0.031,0,0.0108,0.0144,0.0132,0.0167,0.0186,0.0154,0.0157,0.014,0.0113,0.0098,0.0032,0.0009,-0.0051,-0.0067,-0.0113,-0.0188,-0.0225,-0.0195,-0.0309,-0.0312,-0.032,-0.0316,-0.0283,-0.0337,-0.0315,-0.0316,-0.0316,0,0.0152,0.0171,0.0213,0.0237,0.0242,0.0251,0.0258,0.0254,0.0216,0.0192,0.0149,0.01,0.0042,-0.0012,-0.0132,-0.0112,-0.0194,-0.0258,-0.0262,-0.0296,-0.0333,-0.035,-0.0346,-0.0324,-0.0323,-0.0323,-0.0322,0,0.0202,0.0233,0.0272,0.0278,0.029,0.0302,0.0302,0.0281,0.0297,0.025,0.0258,0.0169,0.0137,0.002,-0.011,-0.0124,-0.0243,-0.0279,-0.0367,-0.0369,-0.0374,-0.0375,-0.0364,-0.0364,-0.0364,-0.0363,-0.0363,0,0.0252,0.0285,0.0298,0.0318,0.037,0.0352,0.0393,0.0377,0.0372,0.0403,0.031,0.032,0.0143,0.0058,-0.008,-0.0229,-0.0223,-0.0356,-0.0386,-0.0352,-0.0351,-0.0367,-0.0367,-0.0366,-0.0365,-0.0365,-0.0364,0,0.0302,0.0307,0.0357,0.038,0.0395,0.0426,0.0465,0.0496,0.0474,0.0512,0.0507,0.0435,0.0319,0.0145,-0.0041,-0.0174,-0.0325,-0.0381,-0.0323,-0.0345,-0.0435,-0.0431,-0.0487,-0.0488,-0.0489,-0.049,-0.049,0,0.033,0.036,0.0409,0.0446,0.0458,0.0502,0.054,0.0542,0.0588,0.0594,0.0631,0.0538,0.0498,0.0221,-0.0037,-0.0279,-0.0318,-0.0413,-0.0439,-0.0424,-0.0448,-0.0442,-0.0437,-0.0423,-0.0423,-0.0423,-0.0423,0,0.0388,0.04,0.0443,0.0518,0.0568,0.0632,0.0689,0.0749,0.076,0.0799,0.0838,0.0808,0.0547,0.0316,-0.0026,-0.0196,-0.0376,-0.0421,-0.0422,-0.0394,-0.0368,-0.0389,-0.0386,-0.0423,-0.0423,-0.0423,-0.0423,-0.0423,0.0432,0.0472,0.0527,0.0603,0.0665,0.0754,0.0822,0.0897,0.0986,0.1053,0.1007,0.0966,0.0687,0.0266,-0.0036,-0.0369,-0.0364,-0.0475,-0.0473,-0.0472,-0.0451,-0.0427,-0.0489,-0.0489,-0.0489,-0.049,-0.049,0,0.0492,0.0536,0.061,0.0699,0.0782,0.08,0.0923,0.0996,0.1117,0.1163,0.119,0.0947,0.0677,0.0344,-0.0137,-0.0421,-0.0449,-0.0516,-0.0479,-0.0477,-0.0475,-0.0453,-0.0493,-0.0494,-0.0494,-0.0495,0,0,0.0525,0.0606,0.0643,0.0785,0.0851,0.0969,0.1044,0.1154,0.1218,0.1278,0.1255,0.1188,0.0787,0.045,0.0059,-0.0218,-0.0288,-0.028,-0.0247,-0.0156,-0.0151,-0.0422,-0.0381,0,0,0,0,0]}],[{"header":{"parameterUnit":"m.s-1","parameterCategory":2,"la1":30.2991,"la2":30.254,"lo1":-89.0895,"lo2":-89.0444,"dy":0.0017,"dx":0.0017,"nx":28,"ny":28,"refTime":"2024-10-07T09:00:00:Z","depth":"4","parameterNumber":2,"parameterNumberName":"U-component_of_CURRENTS"},"data":[0,0,0,0,0,0,0,0,0,0,0,0,0,0,0,0,0,0,0,0,0,0,0,0,0,0,0,0,0,0,0,0,0,0,0,0,0,0,0,0,0,0,0,0,0,0,0,0,0,0,0,0,0,0,0,0,0,0,0.1579,0.158,0,0.1649,0.1649,0.165,0.1706,0.1707,0.1707,0.1708,0.1786,0.1787,0.1789,0,0,0,0,0,0,0,0,0,0,0,0,0,0.1481,0.1483,0.1579,0.158,0.1581,0.1649,0.1649,0.165,0.1706,0.1707,0.1708,0.1708,0.1785,0.1787,0.1789,0,0,0,0,0,0,0,0,0,0,0,0,0,0.1533,0.1483,0.1578,0.1618,0.1623,0.1648,0.1649,0.165,0.1706,0.1707,0.1708,0.1709,0.1785,0.1787,0.1789,0.1779,0,0,0.1795,0.1796,0,0,0,0,0,0,0,0,0.153,0.1536,0.1611,0.1616,0.1621,0.1672,0.1644,0.1695,0.1705,0.1672,0.1708,0.1709,0.1749,0.1754,0.1762,0.1783,0.1786,0.1795,0.1797,0.1798,0.1798,0,0,0,0,0,0,0,0.1526,0.1533,0.1604,0.1612,0.1618,0.1629,0.1637,0.1653,0.1702,0.1675,0.168,0.169,0.1751,0.1759,0.1764,0.1787,0.1795,0.1797,0.1798,0.1799,0.1909,0.191,0,0,0,0,0,0,0.1521,0.153,0.1602,0.1607,0.1579,0.163,0.1639,0.1652,0.1702,0.1711,0.1689,0.1693,0.1755,0.1761,0.1767,0.1854,0.1798,0.1799,0.1801,0.1907,0.1909,0.1911,0,0,0,0,0,0,0.1519,0.1527,0.1599,0.1571,0.1582,0.1631,0.1645,0.1653,0.1696,0.1713,0.1722,0.1728,0.1756,0.1764,0.1816,0.1854,0.18,0.1802,0.1905,0.1908,0.191,0.1966,0,0,0,0,0,0,0.1516,0.1526,0.1549,0.1571,0.1583,0.1639,0.1644,0.1654,0.17,0.1706,0.1748,0.1755,0.1758,0.1813,0.1818,0.1856,0.1804,0.1903,0.1906,0.1909,0.1963,0.1971,0.1978,0,0,0,0,0,0.1512,0.1534,0.155,0.1559,0.1608,0.164,0.1648,0.1684,0.1701,0.1726,0.1758,0.1755,0.1836,0.1816,0.1821,0.1861,0.1901,0.1905,0.1909,0.1959,0.1969,0.1977,0,0,0,0,0,0,0.1505,0.1542,0.156,0.1594,0.1627,0.1651,0.1682,0.1702,0.1746,0.1763,0.1774,0.1783,0.1843,0.1843,0.182,0.1902,0.1869,0.1874,0.1906,0.1915,0.1922,0.1922,0.1806,0,0,0,0,0,0.1512,0.1543,0.1575,0.1607,0.1626,0.166,0.1684,0.1709,0.1742,0.1764,0.1793,0.1825,0.1856,0.188,0.1904,0.1946,0.195,0.1976,0.1984,0.199,0.1994,0.2031,0.2042,0.1923,0.1923,0.1923,0,0,0.1519,0.1545,0.1563,0.1609,0.1638,0.1669,0.1678,0.1725,0.176,0.1764,0.183,0.1855,0.1874,0.1925,0.1952,0.1935,0.2029,0.1995,0.2,0.2,0.2036,0.2048,0.2058,0.1926,0.1925,0.1925,0,0,0.1534,0.1572,0.1599,0.1629,0.1682,0.1701,0.1722,0.1767,0.1802,0.1857,0.1873,0.1921,0.1968,0.199,0.2005,0.2067,0.2067,0.2083,0.2122,0.2159,0.2168,0.2177,0.2206,0.2216,0.2086,0.2087,0.2087,0,0.1543,0.1581,0.1613,0.1645,0.1678,0.1718,0.1753,0.1788,0.1847,0.1881,0.189,0.1977,0.1996,0.2054,0.2081,0.2084,0.2104,0.2085,0.2168,0.2176,0.2184,0.2211,0.2223,0.209,0.2089,0.2089,0.2089,0,0.1568,0.1611,0.1633,0.1687,0.1723,0.1765,0.1811,0.1861,0.1907,0.194,0.2021,0.2051,0.2103,0.212,0.2121,0.2193,0.2189,0.2172,0.2142,0.22,0.2225,0.2235,0.2094,0.2093,0.2092,0.2091,0,0,0.1548,0.1634,0.1644,0.168,0.1753,0.178,0.1849,0.1914,0.1964,0.2028,0.2093,0.2153,0.218,0.2198,0.2215,0.2248,0.2323,0.2242,0.2243,0.2266,0.2411,0.2281,0.2279,0.2327,0.2329,0.2331,0.2409,0,0.1563,0.1625,0.1669,0.1735,0.177,0.1834,0.1889,0.1956,0.2017,0.2089,0.2142,0.2208,0.2207,0.2246,0.2282,0.2317,0.2353,0.2304,0.2356,0.2357,0.223,0.2287,0.2337,0.2416,0.2419,0.242,0.2422,0,0.1566,0.1611,0.1676,0.1763,0.1786,0.1835,0.1934,0.1989,0.2091,0.2144,0.2221,0.2264,0.2345,0.2325,0.2416,0.239,0.2411,0.2424,0.2427,0.229,0.2245,0.2346,0.244,0.2439,0.2438,0.2436,0.2435,0,0.152,0.1614,0.1669,0.1699,0.18,0.1853,0.1913,0.2012,0.2075,0.2188,0.2251,0.2335,0.2402,0.2441,0.2489,0.2465,0.2573,0.2536,0.2436,0.2428,0.2496,0.2486,0.2593,0.2593,0.2593,0.2593,0.2592,0,0.15,0.1547,0.1659,0.1686,0.1759,0.1838,0.1923,0.1997,0.2113,0.2181,0.2281,0.2344,0.2439,0.251,0.2523,0.2518,0.2606,0.2452,0.244,0.2519,0.2511,0.2504,0.2492,0.2595,0.2595,0.2594,0.2594,0,0.1435,0.1511,0.1578,0.1696,0.174,0.1791,0.193,0.1984,0.2108,0.2204,0.225,0.2391,0.2471,0.2546,0.2619,0.2556,0.2562,0.2538,0.2637,0.2628,0.2383,0.2374,0.2419,0.2415,0.2411,0.2409,0.2406,0,0.1404,0.1435,0.1569,0.1612,0.1674,0.1767,0.1827,0.1965,0.2023,0.2205,0.2239,0.2382,0.2451,0.2454,0.2536,0.2557,0.2528,0.2514,0.2422,0.2382,0.2367,0.2363,0.2358,0.2401,0.24,0.2399,0.2398,0,0.134,0.1404,0.1459,0.1548,0.1625,0.1693,0.1794,0.1828,0.1975,0.2114,0.2172,0.2221,0.2314,0.2363,0.2411,0.2415,0.2507,0.2478,0.2483,0.2397,0.2361,0.2348,0.2348,0.2387,0.2388,0.239,0.239,0,0.1295,0.1316,0.1399,0.1466,0.1555,0.159,0.1655,0.1724,0.18,0.1994,0.2008,0.2152,0.2283,0.2292,0.2331,0.2335,0.2289,0.2199,0.2218,0.2232,0.2136,0.206,0.1991,0,0,0,0,0,0.1236,0.125,0.1309,0.137,0.1454,0.1504,0.1619,0.1685,0.1829,0.182,0.1908,0.1977,0.2039,0.2122,0.2088,0.2258,0.2303,0.221,0.2211,0.2323,0.2336,0.224,0,0,0,0,0,0,0.1196,0.1245,0.1269,0.1277,0.1301,0.1373,0.1439,0.1537,0.154,0.1695,0.1741,0.1861,0.1956,0.2037,0.205,0.2076,0.2037,0.2307,0.2302,0.2315,0.2327,0.2338,0.2244,0,0,0,0,0]},{"header":{"parameterUnit":"m.s-1","parameterCategory":2,"la1":30.2991,"la2":30.254,"lo1":-89.0895,"lo2":-89.0444,"dy":0.0017,"dx":0.0017,"nx":28,"ny":28,"refTime":"2024-10-07T09:00:00:Z","depth":"4","parameterNumber":3,"parameterNumberName":"V-component_of_CURRENTS"},"data":[0,0,0,0,0,0,0,0,0,0,0,0,0,0,0,0,0,0,0,0,0,0,0,0,0,0,0,0,0,0,0,0,0,0,0,0,0,0,0,0,0,0,0,0,0,0,0,0,0,0,0,0,0,0,0,0,0,0,0.0062,0.0062,0,0.0015,0.0014,0.0014,-0.002,-0.002,-0.002,-0.002,-0.009,-0.0092,-0.0093,0,0,0,0,0,0,0,0,0,0,0,0,0,0.0096,0.0095,0.0062,0.0062,0.0061,0.0015,0.0014,0.0014,-0.002,-0.002,-0.002,-0.0021,-0.009,-0.0091,-0.0093,0,0,0,0,0,0,0,0,0,0,0,0,0,0.0068,0.0095,0.0062,0.0039,0.0037,0.0015,0.0014,0.0013,-0.002,-0.002,-0.002,-0.0021,-0.0089,-0.0091,-0.0094,-0.0102,0,0,-0.0101,-0.0102,0,0,0,0,0,0,0,0,0.0069,0.0067,0.0043,0.0041,0.0038,0.0003,0.0001,-0.0026,-0.002,0.0001,-0.002,-0.0021,-0.006,-0.0065,-0.0074,-0.0105,-0.0108,-0.0101,-0.0103,-0.0104,-0.0105,0,0,0,0,0,0,0,0.0071,0.0068,0.0043,0.0043,0.0039,0.0022,0.0018,-0.0005,-0.0028,-0.0001,-0.0003,-0.0007,-0.0062,-0.0071,-0.0076,-0.0109,-0.0101,-0.0104,-0.0105,-0.0106,-0.0161,-0.0161,0,0,0,0,0,0,0.008,0.007,0.0045,0.0042,0.0054,0.0022,0.0017,0.0015,-0.0027,-0.0034,-0.0007,-0.0009,-0.0067,-0.0073,-0.0078,-0.0089,-0.0104,-0.0106,-0.0108,-0.0161,-0.0161,-0.0161,0,0,0,0,0,0,0.0081,0.0078,0.0046,0.0055,0.005,0.0022,0.0019,0.0014,0.0002,-0.0032,-0.0039,-0.0013,-0.0067,-0.0075,-0.0096,-0.0092,-0.0107,-0.011,-0.0161,-0.0161,-0.0161,-0.0112,0,0,0,0,0,0,0.0082,0.0079,0.0081,0.0056,0.005,0.0038,0.0019,0.0013,0.0,-0.0002,-0.0039,-0.0046,-0.0068,-0.0092,-0.0098,-0.0096,-0.0112,-0.0161,-0.0161,-0.0161,-0.0113,-0.011,-0.0107,0,0,0,0,0,0.0084,0.0089,0.0081,0.0078,0.0053,0.0038,0.0033,0.0012,0.0001,-0.0001,-0.0026,-0.0045,-0.0097,-0.0094,-0.0101,-0.0099,-0.0161,-0.0161,-0.0161,-0.0115,-0.0111,-0.0107,0,0,0,0,0,0,0.0105,0.0085,0.0076,0.0076,0.006,0.0033,0.003,0.0014,-0.0008,-0.001,-0.0044,-0.0053,-0.0071,-0.0092,-0.0089,-0.0116,-0.0132,-0.0134,-0.0095,-0.0091,-0.0088,-0.007,-0.0114,0,0,0,0,0,0.0111,0.0111,0.0088,0.0088,0.0082,0.0056,0.0047,0.0033,0.0011,0.0001,-0.0025,-0.0053,-0.0076,-0.0089,-0.0112,-0.0126,-0.015,-0.0131,-0.0127,-0.0124,-0.0115,-0.015,-0.0148,-0.0161,-0.0161,-0.0161,0,0,0.0119,0.0109,0.0109,0.0093,0.0079,0.0078,0.005,0.0041,0.0041,-0.0003,-0.0012,-0.0043,-0.0077,-0.0092,-0.0102,-0.011,-0.0134,-0.0124,-0.0122,-0.0114,-0.0149,-0.0148,-0.0147,-0.0161,-0.0161,-0.0161,0,0,0.014,0.0128,0.0136,0.0126,0.011,0.0095,0.0094,0.0068,0.0057,0.0042,0.0011,-0.0014,-0.0051,-0.0071,-0.0088,-0.0082,-0.0117,-0.0094,-0.0063,-0.0096,-0.0095,-0.0094,-0.0123,-0.0125,-0.0092,-0.0091,-0.0091,0,0.0152,0.0159,0.0136,0.0141,0.0141,0.0106,0.0118,0.0101,0.0071,0.0066,0.0046,-0.0007,-0.0038,-0.0054,-0.0054,-0.0074,-0.0098,-0.0072,-0.0091,-0.0091,-0.0091,-0.012,-0.0124,-0.0089,-0.0089,-0.009,-0.009,0,0.0177,0.0183,0.0188,0.0186,0.0182,0.0185,0.0163,0.0154,0.0134,0.0114,0.0091,0.0044,0.0015,-0.0004,-0.0028,-0.0044,-0.0063,-0.0083,-0.0097,-0.0087,-0.0119,-0.0123,-0.0086,-0.0087,-0.0087,-0.0088,0,0,0.0202,0.0206,0.0208,0.0222,0.0208,0.0212,0.0211,0.0204,0.0209,0.0166,0.0166,0.0115,0.0085,0.0065,0.0026,-0.0006,-0.0034,-0.0041,-0.0044,-0.0063,-0.0107,-0.0112,-0.0118,-0.006,-0.0061,-0.0061,-0.0128,0,0.0231,0.0259,0.0251,0.0282,0.0297,0.0274,0.028,0.0268,0.0247,0.0235,0.0181,0.0162,0.0112,0.0098,0.0058,-0.0009,-0.0043,-0.0014,-0.0119,-0.0122,-0.0123,-0.0122,-0.0062,-0.0131,-0.0132,-0.0133,-0.0134,0,0.026,0.0277,0.0313,0.0339,0.0344,0.0355,0.0366,0.0365,0.0336,0.0317,0.0283,0.0241,0.0192,0.0145,0.0038,0.0057,-0.0017,-0.0075,-0.0079,-0.0102,-0.0135,-0.0145,-0.0142,-0.0141,-0.0141,-0.014,-0.0139,0,0.0296,0.0325,0.036,0.0366,0.0382,0.0397,0.0402,0.0389,0.0404,0.0369,0.0374,0.0301,0.0269,0.0169,0.0049,0.0042,-0.0073,-0.0099,-0.0175,-0.0176,-0.0172,-0.0172,-0.0175,-0.0175,-0.0175,-0.0175,-0.0175,0,0.0329,0.036,0.0381,0.0399,0.0447,0.0439,0.0479,0.0469,0.0469,0.0491,0.042,0.0417,0.0273,0.0192,0.0073,-0.0059,-0.0058,-0.0165,-0.0192,-0.0151,-0.0148,-0.0176,-0.0175,-0.0177,-0.0177,-0.0176,-0.0176,0,0.036,0.0371,0.0417,0.0447,0.0464,0.0495,0.0539,0.0565,0.0553,0.058,0.0575,0.0505,0.0393,0.025,0.0084,-0.0019,-0.0151,-0.02,-0.0136,-0.0159,-0.0238,-0.0234,-0.0287,-0.0288,-0.0288,-0.0289,-0.0289,0,0.0377,0.0403,0.0457,0.0491,0.0508,0.0554,0.0589,0.0602,0.0635,0.0634,0.0652,0.0566,0.0496,0.027,0.0101,-0.0122,-0.0161,-0.0233,-0.0245,-0.0227,-0.0249,-0.0244,-0.024,-0.029,-0.029,-0.029,-0.0291,0,0.041,0.0429,0.0466,0.0536,0.0585,0.0645,0.0695,0.0729,0.0742,0.0743,0.0719,0.0601,0.0474,0.0282,0.0108,-0.0056,-0.0188,-0.024,-0.024,-0.0253,-0.0232,-0.0252,-0.0247,-0.0293,-0.0292,-0.0292,-0.0292,0,0.0436,0.0468,0.0517,0.0579,0.0646,0.0709,0.0734,0.077,0.0799,0.0795,0.0784,0.0641,0.0556,0.0316,0.0157,-0.0004,-0.0055,-0.0118,-0.0126,-0.0125,-0.0066,-0.0016,-0.0028,0,0,0,0,0,0.0459,0.0496,0.0557,0.0623,0.069,0.073,0.0797,0.0814,0.0834,0.0828,0.0809,0.0689,0.0453,0.0353,0.0192,0.013,-0.0092,-0.0068,-0.017,-0.0305,-0.0302,-0.0262,0,0,0,0,0,0,0.0473,0.0531,0.0559,0.0648,0.0699,0.0778,0.0821,0.0836,0.0831,0.0825,0.0708,0.0642,0.0418,0.0551,0.0189,0.0139,0.0048,-0.0177,-0.0181,-0.0306,-0.0304,-0.0302,-0.0259,0,0,0,0,0]}]]